Location: Bailleul
(50.3375°N, 2.8513°E)
Time: 05:49:49
(UTC+00:00)

H-2A R/B - Pass Details

Date: 19 April 2021
Orbit: 575 x 596 km, 98.2° (Epoch: 09 May)

Event Time Altitude Azimuth Distance (km) Brightness Sun altitude
Rises 21:54:02 0° 13° (NNE) 2,850 7.7 -23.4°
Reaches altitude 10° 21:56:13 10° 12° (NNE) 1,945 6.7 -23.6°
Maximum altitude 22:00:26 76° 287° (WNW) 621 3.5 -23.9°
Enters shadow 22:00:40 73° 251° (WSW) 629 3.5 -23.9°
